Location: Le Pontet
(43.9663°N, 4.8604°E)
Time: 07:03:47
(UTC+00:00)

Daily predictions for brighter satellites

Satellite Brightness Start Highest point End
(mag) Time Altitude Azimuth Time Altitude Azimuth Time Altitude Azimuth
AQUARIUS 4.5 17:20:14 10° S 17:24:42 74° WSW 17:29:12 10° NNW
Cosmos 468 Rocket 4.3 17:23:48 10° N 17:28:42 42° ENE 17:33:33 10° SE
Cosmos 1844 Rocket 3.0 17:26:25 10° NNW 17:31:44 43° ENE 17:37:00 10° SE
COSMO-SKYMED 1 2.8 17:28:49 10° NNE 17:33:03 49° E 17:37:15 10° S
SL-08 R/B 3.7 17:32:55 10° N 17:37:52 74° WNW 17:42:47 10° SSW
Cosmos 1328 4.1 17:34:35 10° SSW 17:38:33 70° W 17:42:30 10° N
Cosmos 1954 Rocket 4.0 17:34:04 10° S 17:39:17 72° ESE 17:44:30 10° NNE
Lacrosse 5 1.9 17:34:17 10° SW 17:39:23 88° NW 17:44:32 10° NE
USA 215 3.3 17:33:17 10° SE 17:39:51 88° NE 17:46:27 10° NW
CZ-4B DEB 4.3 17:35:36 10° SE 17:40:51 52° ENE 17:46:09 10° N
CZ-4B R/B 4.0 17:37:33 10° ESE 17:42:06 29° ENE 17:46:43 10° N
Cosmos 1461 3.0 17:40:12 10° SSW 17:44:24 69° ESE 17:48:50 10° NE
Cosmos 1763 Rocket 3.4 17:39:14 10° NNW 17:44:24 70° ENE 17:49:28 10° SSE
Meteor 1-11 4.3 17:38:50 10° S 17:44:34 65° E 17:50:18 10° NNE
Lacrosse 5 rocket 2.1 17:41:46 10° NNW 17:44:55 27° NNE 17:47:26 14° E
Cosmos 1892 2.6 17:42:01 10° S 17:45:45 85° E 17:49:31 10° N
Cosmos 1726 Rocket 3.8 17:42:28 10° N 17:46:38 45° ENE 17:50:46 10° SSE
ATLAS 2AS CENTAUR R/B 2.7 17:41:22 10° NW 17:48:24 84° NE 17:55:01 10° SE
Cosmos 1844 3.9 17:45:21 10° NNW 17:51:02 53° ENE 17:56:39 10° SE
SL-08 ROCKET BODY 4.3 17:45:32 10° N 17:51:26 88° E 17:57:16 10° S
Cosmos 1825 2.1 17:48:38 10° S 17:52:15 59° E 17:55:54 10° NNE
Cosmos 2219 Rocket 3.2 17:49:02 10° SSE 17:53:30 25° ESE 17:57:32 12° NE
Cosmos 2360 Rocket 2.3 17:48:24 10° S 17:53:53 57° ESE 17:59:26 10° NNE
Cosmos 540 Rocket 3.5 17:50:31 10° NNW 17:55:36 56° ENE 18:00:38 10° SE
Cosmos 841 Rocket 4.0 17:53:00 10° N 17:57:54 37° ENE 18:02:43 10° SE
CZ-4C R/B 3.1 17:58:44 10° NNE 18:02:33 87° ESE 18:06:08 10° SSW
CZ-4 R/B 2.3 17:59:10 10° SE 18:02:36 26° ENE 18:06:01 10° NNE
Cosmos 1745 Rocket 4.5 17:57:29 10° N 18:03:11 35° ENE 18:08:46 10° SE
Okean O Rocket 2.5 18:01:03 10° SE 18:04:45 27° ENE 18:08:30 10° N
Cosmos 2278 Rocket 3.9 18:02:29 10° NNE 18:05:13 13° NE 18:05:53 13° NE
Cosmos 2333 Rocket 2.5 18:00:18 10° S 18:05:39 47° ESE 18:11:05 10° NE
Cosmos 2322 Rocket 2.3 18:01:12 10° SSW 18:06:48 79° WNW 18:12:27 10° NNE
Atlas Centaur 2 4.4 18:04:13 10° SW 18:10:31 26° SSE 18:16:26 12° ESE
IRIDIUM 114 4.4 18:06:38 10° N 18:11:47 56° E 18:16:54 10° SSE
BlueWalker 3 3.7 18:10:24 10° NW 18:13:24 21° N 18:14:55 17° NE
SKYMED 3 4.4 18:09:52 10° NNE 18:14:01 85° WNW 18:18:10 10° SSW
RESURS DK-1 2.2 18:10:20 10° NNW 18:14:27 67° ENE 18:18:32 10° SE
MINOTAUR 4 R/B 4.2 18:12:49 16° NNE 18:15:14 43° E 18:18:30 10° S
Cosmos 1340 2.8 18:11:42 10° N 18:15:15 46° ENE 18:18:47 10° SSE
COSMOS 2428 3.6 18:16:16 10° SSE 18:20:50 26° ESE 18:21:43 25° E
IRIDIUM 103 4.2 18:15:46 10° N 18:20:59 68° E 18:26:10 10° S
In-Cosmos 22 Rocket 4.4 18:15:31 10° SSW 18:21:19 79° W 18:27:11 10° N
SL-4 R/B 3.0 18:19:01 10° NW 18:22:05 26° NNE 18:22:54 24° NE
ISS -1.0 18:19:45 10° W 18:22:11 19° SW 18:24:38 10° S
SL-16 R/B 3.3 18:16:54 10° SW 18:22:17 43° WNW 18:27:42 10° NNE
Cosmos 1606 4.3 18:19:18 10° NNE 18:20:56 20° NE 18:20:56 20° NE
IGS 5A 4.3 18:26:04 29° NE 18:26:04 29° NE 18:29:10 10° N
Cosmos 1553 Rocket 3.9 18:19:31 10° S 18:25:35 81° E 18:31:47 10° N
Cosmos 2333 4.1 18:20:19 10° SSW 18:25:50 65° ESE 18:31:01 12° NNE
MOS 1-B 4.3 18:20:43 10° SSE 18:26:28 72° ENE 18:32:15 10° N
Cosmos 2058 Rocket 2.9 18:22:31 10° N 18:26:55 71° E 18:31:20 10° SSE
YAOGAN 1 2.4 18:23:14 10° SSE 18:27:32 81° ENE 18:31:52 10° N
Cosmos 1417 Rocket 4.4 18:22:51 10° S 18:29:00 63° E 18:35:08 10° NNE
SL-08 R/B 4.4 18:23:02 10° N 18:29:19 84° E 18:35:39 10° S
CSL-04 Rocket 4.5 18:29:40 28° ENE 18:29:52 28° ENE 18:34:23 10° N
Feng Yun 1-1 Rocket 4.3 18:27:51 10° SE 18:33:12 51° ENE 18:38:29 10° N
Cosmos 968 Rocket 4.4 18:31:12 10° SSE 18:34:47 28° ESE 18:34:47 28° ESE
Genesis I 3.7 18:32:46 10° SW 18:36:41 59° NW 18:38:51 24° NNE
Cosmos 1633 3.6 18:33:44 10° SSW 18:36:56 42° WNW 18:40:09 10° N
BREEZE-M DEB (TANK) 3.7 18:21:50 10° SW 18:38:05 80° SSE 18:40:19 34° ENE
IRIDIUM 106 4.3 18:34:02 10° N 18:39:16 83° W 18:44:29 10° S
Cosmos 2322 3.7 18:40:47 10° S 18:46:21 56° ESE 18:48:46 32° NE
Cosmos 44 Rocket 3.1 18:45:25 10° SSW 18:50:05 85° SE 18:51:44 41° NE
Cosmos 1869 4.4 18:52:27 10° NNW 18:56:10 43° W 18:59:54 10° SSW
S3M 4.0 18:55:00 10° S 19:01:23 90° SE 19:07:48 10° N
CZ-4B R/B 4.4 19:17:27 10° SSW 19:22:28 41° W 19:27:36 10° NNW
Cosmos 2315 Rocket 3.9 19:16:39 10° S 19:22:58 81° E 19:29:22 10° N
Lacrosse 5 3.4 19:18:37 10° W 19:22:58 27° NNW 19:24:06 25° N
Lacrosse 5 rocket 2.7 19:20:25 10° WNW 19:22:52 33° W 19:22:52 33° W
BREEZE-M DEB (TANK) 3.7 19:24:48 10° WNW 19:29:01 84° SSW 19:30:46 56° ESE
Cosmos 1814 Rocket 4.0 19:24:58 10° NNW 19:30:18 79° W 19:30:18 79° W
Cosmos 2219 Rocket 2.9 19:31:43 10° SW 19:37:07 49° WNW 19:39:20 32° N
CZ-4 R/B 3.4 19:33:54 10° SSW 19:37:24 27° W 19:40:55 10° NW
Cosmos 2360 Rocket 4.2 19:33:39 10° WSW 19:38:16 25° NW 19:42:55 10° N
Okean O Rocket 3.4 19:37:09 10° SSW 19:41:00 30° W 19:44:54 10° NW
Cosmos 2333 Rocket 3.9 19:45:13 10° WSW 19:50:07 30° NW 19:53:26 17° N
Cosmos 2278 Rocket 3.5 19:44:47 10° NNW 19:47:46 31° N 19:47:46 31° N
Atlas Centaur 2 4.1 19:52:03 10° WSW 19:58:55 31° S 19:58:55 31° S
COSMOS 2428 3.6 19:59:16 10° SW 20:03:49 45° W 20:03:49 45° W
BREEZE-M DEB (TANK) 4.5 20:12:20 10° WNW 20:35:12 68° SW 20:35:12 68° SW
